Total_Precipitation_Accumulation
0.04 0.03 0.03 0.04 0.03 0.02 0.00 0.00 0.00 0.00 0.00 0.00 0.00 0.00 0.00 0.00 0.00 0.01 0.01 0.01 0.02 0.04 0.08 0.16 0.20 0.23 0.26 0.27 0.26 0.24 0.22 0.23 0.24 0.25 0.26 0.28 0.28 0.27 0.29 0.30 0.30 0.31 0.32 0.34 0.33 0.31 0.28 0.21 0.18
0.04 0.03 0.05 0.06 0.03 0.01 0.00 0.00 0.00 0.00 0.00 0.00 0.00 0.00 0.00 0.00 0.00 0.00 0.00 0.01 0.01 0.02 0.05 0.11 0.20 0.24 0.27 0.28 0.28 0.26 0.25 0.25 0.25 0.26 0.27 0.29 0.30 0.30 0.30 0.29 0.28 0.29 0.32 0.35 0.35 0.32 0.29 0.22 0.20
0.05 0.06 0.08 0.07 0.03 0.00 0.00 0.00 0.00 0.00 0.00 0.00 0.00 0.00 0.00 0.00 0.00 0.01 0.01 0.01 0.01 0.02 0.04 0.11 0.21 0.27 0.30 0.32 0.32 0.30 0.29 0.29 0.30 0.29 0.30 0.31 0.33 0.34 0.32 0.29 0.25 0.26 0.26 0.28 0.29 0.31 0.31 0.26 0.21
0.08 0.13 0.12 0.07 0.01 0.00 0.00 0.00 0.00 0.00 0.00 0.00 0.00 0.00 0.00 0.00 0.00 0.01 0.01 0.01 0.02 0.02 0.04 0.12 0.22 0.29 0.34 0.36 0.35 0.34 0.33 0.33 0.34 0.34 0.34 0.36 0.38 0.38 0.35 0.33 0.29 0.26 0.23 0.24 0.25 0.30 0.35 0.29 0.22
0.12 0.16 0.13 0.06 0.01 0.00 0.00 0.00 0.00 0.00 0.00 0.00 0.00 0.00 0.00 0.00 0.00 0.01 0.01 0.02 0.03 0.04 0.07 0.12 0.22 0.32 0.36 0.39 0.40 0.39 0.40 0.39 0.39 0.39 0.40 0.41 0.41 0.38 0.37 0.35 0.32 0.29 0.26 0.25 0.23 0.25 0.32 0.30 0.26
0.16 0.18 0.11 0.04 0.01 0.00 0.00 0.00 0.00 0.00 0.00 0.00 0.00 0.00 0.00 0.00 0.00 0.00 0.00 0.01 0.01 0.03 0.05 0.11 0.23 0.32 0.38 0.43 0.45 0.46 0.48 0.49 0.48 0.47 0.48 0.48 0.46 0.43 0.38 0.37 0.34 0.31 0.29 0.27 0.26 0.25 0.26 0.26 0.27
0.16 0.16 0.08 0.03 0.01 0.00 0.00 0.00 0.00 0.00 0.00 0.00 0.00 0.00 0.00 0.00 0.00 0.00 0.01 0.01 0.03 0.04 0.07 0.13 0.23 0.32 0.41 0.48 0.52 0.54 0.57 0.58 0.56 0.55 0.55 0.56 0.53 0.50 0.45 0.40 0.36 0.34 0.33 0.32 0.31 0.27 0.22 0.22 0.23
0.19 0.19 0.09 0.03 0.02 0.01 0.00 0.00 0.00 0.01 0.00 0.00 0.00 0.00 0.00 0.01 0.01 0.01 0.02 0.04 0.06 0.08 0.11 0.16 0.24 0.31 0.40 0.49 0.56 0.61 0.65 0.65 0.68 0.69 0.61 0.60 0.62 0.61 0.57 0.47 0.41 0.38 0.37 0.35 0.34 0.30 0.23 0.18 0.17
0.24 0.28 0.11 0.03 0.02 0.02 0.01 0.01 0.01 0.01 0.01 0.01 0.00 0.00 0.01 0.02 0.02 0.04 0.05 0.08 0.11 0.14 0.16 0.20 0.29 0.37 0.42 0.48 0.55 0.67 0.76 0.79 0.82 0.82 0.73 0.69 0.68 0.62 0.57 0.48 0.44 0.41 0.39 0.36 0.35 0.33 0.30 0.24 0.18
0.29 0.23 0.08 0.02 0.02 0.03 0.03 0.03 0.03 0.04 0.02 0.01 0.01 0.01 0.02 0.03 0.05 0.07 0.08 0.10 0.13 0.15 0.19 0.23 0.31 0.39 0.49 0.56 0.63 0.71 0.78 0.83 0.81 0.72 0.72 0.71 0.65 0.59 0.54 0.53 0.52 0.46 0.42 0.41 0.40 0.36 0.31 0.28 0.21
0.22 0.15 0.06 0.03 0.03 0.04 0.06 0.06 0.05 0.06 0.05 0.03 0.03 0.03 0.04 0.05 0.07 0.08 0.10 0.12 0.14 0.16 0.20 0.27 0.35 0.44 0.54 0.60 0.65 0.70 0.73 0.76 0.76 0.67 0.61 0.61 0.62 0.58 0.57 0.52 0.51 0.50 0.49 0.49 0.46 0.42 0.35 0.31 0.28
0.16 0.10 0.07 0.05 0.05 0.07 0.07 0.08 0.07 0.06 0.06 0.05 0.05 0.04 0.05 0.08 0.09 0.11 0.12 0.14 0.17 0.21 0.25 0.30 0.39 0.47 0.55 0.62 0.66 0.68 0.69 0.68 0.66 0.63 0.62 0.60 0.59 0.51 0.50 0.48 0.43 0.42 0.43 0.45 0.46 0.42 0.38 0.32 0.27
0.14 0.09 0.07 0.07 0.08 0.09 0.10 0.11 0.09 0.05 0.05 0.06 0.07 0.07 0.07 0.09 0.11 0.14 0.16 0.17 0.19 0.24 0.29 0.34 0.42 0.49 0.57 0.66 0.72 0.73 0.70 0.64 0.61 0.61 0.63 0.61 0.55 0.51 0.49 0.45 0.44 0.41 0.38 0.35 0.34 0.32 0.30 0.28 0.25
0.14 0.12 0.09 0.09 0.10 0.12 0.15 0.13 0.12 0.06 0.05 0.08 0.09 0.10 0.09 0.10 0.13 0.17 0.21 0.22 0.21 0.26 0.32 0.38 0.45 0.52 0.60 0.66 0.70 0.73 0.73 0.70 0.68 0.65 0.62 0.63 0.62 0.54 0.52 0.50 0.44 0.42 0.41 0.36 0.32 0.27 0.26 0.24 0.21
0.18 0.20 0.16 0.11 0.10 0.11 0.20 0.22 0.11 0.06 0.07 0.09 0.10 0.12 0.11 0.11 0.13 0.16 0.22 0.26 0.23 0.27 0.36 0.44 0.47 0.57 0.66 0.66 0.73 0.75 0.75 0.74 0.72 0.67 0.65 0.67 0.67 0.67 0.59 0.54 0.49 0.43 0.43 0.42 0.40 0.36 0.30 0.26 0.22
0.28 0.36 0.29 0.15 0.12 0.13 0.26 0.26 0.09 0.06 0.09 0.11 0.12 0.12 0.12 0.11 0.11 0.14 0.20 0.28 0.29 0.31 0.38 0.45 0.51 0.57 0.67 0.70 0.74 0.80 0.82 0.78 0.74 0.76 0.72 0.71 0.73 0.74 0.74 0.65 0.56 0.46 0.47 0.49 0.48 0.45 0.39 0.32 0.28
0.42 0.40 0.28 0.18 0.16 0.19 0.27 0.23 0.09 0.08 0.12 0.13 0.14 0.12 0.12 0.12 0.10 0.12 0.18 0.26 0.30 0.32 0.39 0.46 0.55 0.56 0.65 0.77 0.77 0.79 0.85 0.87 0.82 0.85 0.85 0.78 0.77 0.78 0.80 0.79 0.69 0.58 0.53 0.50 0.47 0.44 0.40 0.35 0.31
0.41 0.30 0.23 0.19 0.19 0.22 0.24 0.19 0.12 0.10 0.13 0.13 0.15 0.12 0.12 0.12 0.10 0.12 0.18 0.23 0.31 0.36 0.41 0.49 0.57 0.61 0.68 0.85 0.94 0.88 0.89 0.92 0.91 0.89 0.85 0.85 0.84 0.78 0.77 0.81 0.78 0.69 0.60 0.53 0.48 0.42 0.37 0.33 0.30
0.27 0.32 0.28 0.19 0.18 0.24 0.23 0.17 0.11 0.10 0.10 0.12 0.12 0.12 0.11 0.10 0.10 0.11 0.16 0.22 0.30 0.41 0.44 0.52 0.58 0.65 0.76 0.87 0.98 0.94 0.88 0.89 0.90 0.87 0.84 0.79 0.82 0.83 0.80 0.76 0.75 0.73 0.63 0.52 0.48 0.46 0.41 0.36 0.32
0.34 0.38 0.30 0.22 0.18 0.28 0.27 0.17 0.11 0.10 0.10 0.11 0.10 0.11 0.12 0.10 0.09 0.10 0.16 0.22 0.28 0.41 0.44 0.49 0.58 0.65 0.74 0.82 0.84 0.89 0.87 0.87 0.90 0.87 0.87 0.81 0.76 0.78 0.83 0.79 0.73 0.67 0.63 0.57 0.48 0.45 0.44 0.39 0.32
0.41 0.34 0.26 0.25 0.23 0.30 0.35 0.27 0.12 0.09 0.09 0.10 0.09 0.09 0.13 0.14 0.11 0.11 0.17 0.23 0.27 0.39 0.46 0.49 0.57 0.64 0.72 0.87 0.94 0.99 1.11 1.08 1.05 1.03 0.94 0.85 0.78 0.73 0.75 0.76 0.73 0.67 0.59 0.55 0.49 0.41 0.38 0.38 0.30
0.44 0.23 0.22 0.26 0.41 0.48 0.41 0.46 0.15 0.11 0.11 0.10 0.09 0.09 0.11 0.12 0.11 0.12 0.15 0.22 0.25 0.32 0.45 0.53 0.60 0.66 0.69 0.88 1.03 0.97 1.05 1.04 0.95 0.91 0.92 0.89 0.81 0.75 0.72 0.71 0.69 0.69 0.62 0.53 0.48 0.44 0.39 0.39 0.37
0.34 0.21 0.25 0.33 0.47 0.56 0.42 0.48 0.22 0.11 0.10 0.08 0.08 0.08 0.09 0.11 0.11 0.10 0.11 0.15 0.22 0.28 0.41 0.53 0.64 0.71 0.73 0.80 1.01 1.03 0.95 0.92 0.89 0.93 0.94 0.93 0.90 0.83 0.76 0.71 0.69 0.65 0.62 0.55 0.48 0.45 0.43 0.42 0.42
0.32 0.39 0.44 0.49 0.75 0.94 0.37 0.37 0.27 0.19 0.19 0.12 0.07 0.07 0.09 0.09 0.11 0.10 0.09 0.11 0.20 0.28 0.38 0.49 0.60 0.72 0.78 0.78 0.89 1.04 0.97 0.91 0.89 0.94 0.99 0.98 0.96 0.91 0.84 0.75 0.71 0.66 0.61 0.56 0.51 0.45 0.43 0.41 0.40
0.53 0.81 1.17 1.18 1.22 0.77 0.17 0.25 0.27 0.18 0.15 0.15 0.10 0.07 0.07 0.08 0.10 0.12 0.11 0.11 0.17 0.26 0.34 0.44 0.56 0.64 0.71 0.75 0.79 0.87 0.97 0.94 0.86 0.81 0.86 0.95 0.98 0.91 0.83 0.79 0.73 0.67 0.62 0.59 0.56 0.51 0.45 0.41 0.40
0.55 0.75 0.98 0.89 0.58 0.23 0.10 0.21 0.21 0.14 0.09 0.10 0.07 0.05 0.05 0.05 0.07 0.10 0.11 0.12 0.16 0.21 0.27 0.38 0.47 0.59 0.71 0.76 0.76 0.80 0.87 0.99 0.91 0.83 0.78 0.82 0.87 0.83 0.75 0.73 0.71 0.66 0.62 0.61 0.62 0.59 0.51 0.45 0.43
0.52 0.56 0.49 0.63 0.46 0.30 0.20 0.17 0.14 0.06 0.05 0.06 0.05 0.04 0.04 0.05 0.07 0.08 0.10 0.12 0.14 0.20 0.24 0.34 0.41 0.52 0.66 0.78 0.80 0.79 0.81 0.90 0.93 0.85 0.79 0.78 0.78 0.78 0.78 0.75 0.72 0.68 0.66 0.66 0.67 0.64 0.56 0.50 0.47
0.44 0.52 0.64 0.92 0.78 0.41 0.21 0.18 0.20 0.12 0.09 0.08 0.07 0.06 0.05 0.05 0.06 0.08 0.09 0.12 0.15 0.18 0.22 0.29 0.37 0.45 0.55 0.69 0.84 0.84 0.79 0.79 0.86 0.87 0.84 0.78 0.75 0.76 0.78 0.81 0.78 0.73 0.69 0.70 0.72 0.68 0.60 0.57 0.54
0.54 0.69 0.87 0.90 0.63 0.45 0.28 0.24 0.24 0.17 0.14 0.13 0.10 0.09 0.07 0.06 0.07 0.08 0.10 0.13 0.15 0.19 0.24 0.30 0.37 0.42 0.47 0.56 0.73 0.83 0.82 0.83 0.87 0.90 0.88 0.83 0.76 0.73 0.73 0.75 0.78 0.80 0.74 0.69 0.73 0.71 0.66 0.64 0.59
0.47 0.61 0.76 0.91 0.63 0.33 0.29 0.24 0.19 0.14 0.13 0.13 0.11 0.09 0.07 0.05 0.05 0.06 0.07 0.13 0.17 0.20 0.25 0.31 0.38 0.41 0.42 0.49 0.60 0.71 0.79 0.82 0.87 0.87 0.92 0.95 0.89 0.75 0.67 0.68 0.73 0.77 0.77 0.72 0.71 0.71 0.67 0.67 0.64